Regional Weather Roundup
Issued by NWS Charleston, SC

Home | Current Version | Previous Version | Text Only | Print | Product List | Glossary On
Versions: 1 2 3 4 5 6 7 8 9 10 11 12 13 14 15 16 17 18 19 20 21 22 23 24 25 26 27 28 29 30 31 32 33 34 35 36 37 38 39 40 41 42 43 44 45 46 47 48 49 50
000
ASUS42 KCHS 171127
RWRCHS

REGIONAL WEATHER ROUNDUP
NATIONAL WEATHER SERVICE CHARLESTON SC
700 AM EDT TUE OCT 17 2017

NOTE: "FAIR" INDICATES FEW OR NO CLOUDS BELOW 12,000 FEET WITH NO
SIGNIFICANT WEATHER AND/OR OBSTRUCTIONS TO VISIBILITY.

NOT ALL STATIONS ARE QUALITY CONTROLLED. USE DATA WITH CAUTION...
ESPECIALLY DEWPOINT OBSERVATIONS.

SCZ027-030-031-034>040-042>050-171200-
...SOUTHEAST SOUTH CAROLINA...

CITY           SKY/WX    TMP DP  RH WIND       PRES   REMARKS
N CHARLESTON   CLOUDY    55  47  74 NE14      30.21R
WATERFRONT PRK NOT AVBL
JOHNS ISLAND   FAIR      57  46  67 N16G23    30.21R
PINOPOLIS        N/A     55  52  88 NE16      30.13R
MONCKS CORNER  FAIR      54  46  76 NE8G17    30.24R
SUMMERVILLE    FAIR      52  46  82 N5        30.24R
BEAUFORT MCAS  CLOUDY    57  52  83 N7        30.21R
BEAUFORT ARPT  FAIR      59  46  63 NE26G37   30.20R
HILTON HEAD IS CLEAR     59  46  63 NE18G28   30.19R
WALTERBORO     CLOUDY    52  46  82 NE7       30.24R
ALLENDALE      NOT AVBL

...SOUTHERN MIDLANDS AND PEE DEE...

CITY           SKY/WX    TMP DP  RH WIND       PRES   REMARKS
GEORGETOWN     NOT AVBL
KINGSTREE      FAIR      50  45  81 N5        30.26R
ORANGEBURG     PTCLDY    51  42  71 NE9       30.25R
BARNWELL         N/A     50  45  81 N6        30.26R
AIKEN          FAIR      45  41  87 N6        30.30R
MANNING        DRZL/FOG  50  45  81 MISG      30.26R VSB 1/4
COLUMBIA       CLOUDY    51  42  71 N5        30.27R
SUMTER         PTCLDY    47  41  79 NE9       30.24R
FLORENCE       MOCLDY    48  44  86 N9        30.27R
MYRTLE BEACH   CLOUDY    53  43  68 N14       30.23R
N MYRTLE BEACH PTCLDY    54  41  61 NE15      30.21R

$$

GAZ063-065-086>088-099>101-113>116-118-119-134>141-150-171200-
...SOUTHEAST GEORGIA...

CITY           SKY/WX    TMP DP  RH WIND       PRES   REMARKS
SAVANNAH ARPT  CLOUDY    56  51  84 N14       30.20R
HUNTER AAF     CLOUDY    59  47  63 NE9G18    30.16R
FORT STEWART   CLOUDY    56  49  77 N12       30.17R
STATESBORO     CLOUDY    54  43  68 NE5       30.24R
SYLVANIA       MOSUNNY   52  47  84 NE6       30.24R
CLAXTON        FAIR      56  47  73 N8        30.23R

...CSRA...CENTRAL AND FAR SOUTHEAST GEORGIA...

CITY           SKY/WX    TMP DP  RH WIND       PRES   REMARKS
THOMSON        CLOUDY    52  41  68 E7        30.33R
AUGUSTA-BUSH   CLOUDY    51  44  77 N7        30.26R
AUGUSTA-DANIEL MOCLDY    51  43  74 N7        30.27R
SWAINSBORO     FAIR      52  45  76 MISG      30.25R
VIDALIA        PTCLDY    54  46  76 N5        30.23R
EASTMAN        FAIR      54  37  52 NE8       30.26R
HAZLEHURST     FAIR      56  40  54 NE5       30.21R
ALMA           CLOUDY    58  48  69 N6        30.18R
WAYCROSS       CLOUDY    59  50  70 NE9       30.18R
JESUP          NOT AVBL
BAXLEY         FAIR      54  46  76 NE8       30.20R
BRUNSWICK      CLOUDY    63  52  67 N5        30.16R
SAINT SIMONS   CLOUDY    68  58  70 NE16G29   30.13R

$$

SCZ027-028-034-036>038-045-046-048>050-GAZ119-141-171200-
...LAKE AND SUPPLEMENTAL COASTAL OBSERVATIONS...

STATION/POSITION TIME  TEMP    WIND        PRES    WAVE   SWELL
                       AIR SEA DIR/SP/G            HT/PER HT/PER/DIR
                 (UTC) (F)     (DEG/KT/KT) (MB)    (FT/S) (FT/S/D)
WINYAH BAY       1045   56      20/ 11     1023.0R
LAKE MURRAY      1030   50     360/  4/  8 1024.4R
ACE BASIN NERRS  1045   57      20/  5     1023.0R
FORT PULASKI     1100   63 78   40/ 15/ 22 1022.4
SAPELO ISLAND    1100   66      30/ 16     1021.0

$$

ANZ835-935-AMZ111-154-330-350-352-354-370-450-454-472-171200-
...C-MAN AND BUOY OBSERVATIONS...

STATION/POSITION TIME  TEMP    WIND        PRES    WAVE   SWELL
                       AIR SEA DIR/SP/G            HT/PER HT/PER/DIR
                 (UTC) (F)     (DEG/KT/KT) (MB)    (FT/S) (FT/S/D)
BUOY 41004       1110   68 80   30/ 25/ 31 1019.9
BUOY 41008       1050   69 79   40/ 25/ 31 1019.0R   8/ 8
FOLLY BEACH CMAN 1100   60      10/ 23/ 26 1022.7R
CAPERS NEARSHORE 1108   59 77   30/ 23/ 33 1021.1R
FRIPP NEARSHORE  1108   64      40/ 21/ 27   N/A


STATION/POSITION TIME  TEMP    WIND        PRES    WAVE   SWELL
                       AIR SEA DIR/SP/G            HT/PER HT/PER/DIR
                 (UTC) (F)     (DEG/KT/KT) (MB)    (FT/S) (FT/S/D)
5E ST. MARYS GA  1100      80                N/A     9/ 8   2/ 90/11
FRYING PAN BUOY  1110   67 77   30/ 25/ 31 1020.3
BUOY 41025       1050   66 81   30/ 27/ 33 1020.0R   8/ 8
CAPE LOOKOUT NC  1100   61      10/ 19/ 23 1021.5R
BUOY 41002       1050   76 80   30/ 25/ 29 1014.4R   7/ 6   3/130/11
BUOY 41010       NOT AVBL
ST AUGUSTINE FL  1100   75 81   30/ 26/ 29 1017.6R


$$




USA.gov is the U.S. government's official web portal to all federal, state and local government web resources and services.